<?xml version='1.0' encoding='UTF-8'?>
<gpx xmlns="http://www.topografix.com/GPX/1/1" creator="www.balnam.be" version="1.1" xmlns:xsi="http://www.w3.org/2001/XMLSchema-instance" xsi:schemaLocation="http://www.topografix.com/GPX/1/1 http://www.topografix.com/GPX/1/1/gpx.xsd">
<trk>
<name>hcmvt10</name>
<cmt>v</cmt>
<desc>Villers-la-Tour Chemin n°10 Rue du Moulin / weg / Rue Moursounnais</desc>
<link href="https://chemins.be/villerslatour/chemin/10"/><trkseg>
<trkpt lat="50.035836" lon="4.261427"><time>2026-05-03T07:36:44Z</time></trkpt>
<trkpt lat="50.035115" lon="4.260186"><time>2026-05-03T07:46:44Z</time></trkpt>
<trkpt lat="50.034872" lon="4.260159"><time>2026-05-03T07:56:44Z</time></trkpt>
<trkpt lat="50.034783" lon="4.260243"><time>2026-05-03T08:06:44Z</time></trkpt>
<trkpt lat="50.034567" lon="4.260104"><time>2026-05-03T08:16:44Z</time></trkpt>
<trkpt lat="50.033767" lon="4.260636"><time>2026-05-03T08:26:44Z</time></trkpt>
<trkpt lat="50.033632" lon="4.260511"><time>2026-05-03T08:36:44Z</time></trkpt>
<trkpt lat="50.033029" lon="4.260205"><time>2026-05-03T08:46:44Z</time></trkpt>
<trkpt lat="50.032166" lon="4.259509"><time>2026-05-03T08:56:44Z</time></trkpt>
<trkpt lat="50.031419" lon="4.259539"><time>2026-05-03T09:06:44Z</time></trkpt>
<trkpt lat="50.030875" lon="4.259859"><time>2026-05-03T09:16:44Z</time></trkpt>
<trkpt lat="50.029673" lon="4.262708"><time>2026-05-03T09:26:44Z</time></trkpt>
</trkseg>
</trk>
<trk>
<name>hcmvt11</name>
<cmt>v</cmt>
<desc>Villers-la-Tour Chemin n°11 </desc>
<link href="https://chemins.be/villerslatour/chemin/11"/><trkseg>
<trkpt lat="50.027000" lon="4.259099"><time>2026-05-03T07:36:44Z</time></trkpt>
<trkpt lat="50.026029" lon="4.255563"><time>2026-05-03T07:46:44Z</time></trkpt>
<trkpt lat="50.024618" lon="4.253554"><time>2026-05-03T07:56:44Z</time></trkpt>
<trkpt lat="50.023757" lon="4.252044"><time>2026-05-03T08:06:44Z</time></trkpt>
</trkseg>
</trk>
<trk>
<name>hcmvt13</name>
<cmt>v</cmt>
<desc>Villers-la-Tour Chemin n°13 </desc>
<link href="https://chemins.be/villerslatour/chemin/13"/><trkseg>
<trkpt lat="50.018519" lon="4.268815"><time>2026-05-03T07:36:44Z</time></trkpt>
<trkpt lat="50.016864" lon="4.268506"><time>2026-05-03T07:46:44Z</time></trkpt>
<trkpt lat="50.015573" lon="4.267579"><time>2026-05-03T07:56:44Z</time></trkpt>
</trkseg>
</trk>
<trk>
<name>hcmvt14</name>
<cmt>v</cmt>
<desc>Villers-la-Tour Chemin n°14 </desc>
<link href="https://chemins.be/villerslatour/chemin/14"/><trkseg>
<trkpt lat="50.027404" lon="4.261809"><time>2026-05-03T07:36:44Z</time></trkpt>
<trkpt lat="50.026805" lon="4.262569"><time>2026-05-03T07:46:44Z</time></trkpt>
<trkpt lat="50.026483" lon="4.263981"><time>2026-05-03T07:56:44Z</time></trkpt>
<trkpt lat="50.026579" lon="4.264513"><time>2026-05-03T08:06:44Z</time></trkpt>
</trkseg>
</trk>
<trk>
<name>hcmvt15</name>
<cmt>q</cmt>
<desc>Villers-la-Tour Chemin n°15 </desc>
<link href="https://chemins.be/villerslatour/chemin/15"/><trkseg>
<trkpt lat="50.029223" lon="4.264118"><time>2026-05-03T07:36:44Z</time></trkpt>
<trkpt lat="50.028845" lon="4.263315"><time>2026-05-03T07:46:44Z</time></trkpt>
</trkseg>
</trk>
<trk>
<name>hcmvt16</name>
<cmt>v</cmt>
<desc>Villers-la-Tour Chemin n°16 </desc>
<link href="https://chemins.be/villerslatour/chemin/16"/><trkseg>
<trkpt lat="50.030983" lon="4.264536"><time>2026-05-03T07:36:44Z</time></trkpt>
<trkpt lat="50.030823" lon="4.266086"><time>2026-05-03T07:46:44Z</time></trkpt>
<trkpt lat="50.030554" lon="4.266631"><time>2026-05-03T07:56:44Z</time></trkpt>
</trkseg>
</trk>
<trk>
<name>hcmvt17</name>
<cmt>r</cmt>
<desc>Villers-la-Tour Chemin n°17 Rue du Jeu de Balle</desc>
<link href="https://chemins.be/villerslatour/chemin/17"/><trkseg>
<trkpt lat="50.031017" lon="4.262233"><time>2026-05-03T07:36:44Z</time></trkpt>
<trkpt lat="50.031432" lon="4.262916"><time>2026-05-03T07:46:44Z</time></trkpt>
<trkpt lat="50.031099" lon="4.263475"><time>2026-05-03T07:56:44Z</time></trkpt>
</trkseg>
</trk>
<trk>
<name>hcmvt19</name>
<cmt>v</cmt>
<desc>Villers-la-Tour Chemin n°19 </desc>
<link href="https://chemins.be/villerslatour/chemin/19"/><trkseg>
<trkpt lat="50.032529" lon="4.254218"><time>2026-05-03T07:36:44Z</time></trkpt>
<trkpt lat="50.032663" lon="4.253115"><time>2026-05-03T07:46:44Z</time></trkpt>
<trkpt lat="50.032581" lon="4.252208"><time>2026-05-03T07:56:44Z</time></trkpt>
<trkpt lat="50.032525" lon="4.250394"><time>2026-05-03T08:06:44Z</time></trkpt>
<trkpt lat="50.032308" lon="4.249236"><time>2026-05-03T08:16:44Z</time></trkpt>
<trkpt lat="50.032342" lon="4.247435"><time>2026-05-03T08:26:44Z</time></trkpt>
<trkpt lat="50.032223" lon="4.245286"><time>2026-05-03T08:36:44Z</time></trkpt>
</trkseg>
</trk>
<trk>
<name>hcmvt20</name>
<cmt>q</cmt>
<desc>Villers-la-Tour Chemin n°20 </desc>
<link href="https://chemins.be/villerslatour/chemin/20"/><trkseg>
<trkpt lat="50.031436" lon="4.239456"><time>2026-05-03T07:36:44Z</time></trkpt>
<trkpt lat="50.031925" lon="4.237950"><time>2026-05-03T07:46:44Z</time></trkpt>
<trkpt lat="50.031996" lon="4.237736"><time>2026-05-03T07:56:44Z</time></trkpt>
<trkpt lat="50.032141" lon="4.237489"><time>2026-05-03T08:06:44Z</time></trkpt>
</trkseg>
</trk>
<trk>
<name>hcmvt23</name>
<cmt>v</cmt>
<desc>Villers-la-Tour Chemin n°23 </desc>
<link href="https://chemins.be/villerslatour/chemin/23"/><trkseg>
<trkpt lat="50.029673" lon="4.242046"><time>2026-05-03T07:36:44Z</time></trkpt>
<trkpt lat="50.030434" lon="4.241906"><time>2026-05-03T07:46:44Z</time></trkpt>
<trkpt lat="50.031045" lon="4.241795"><time>2026-05-03T07:56:44Z</time></trkpt>
</trkseg>
</trk>
<trk>
<name>hcmvt24</name>
<cmt>v</cmt>
<desc>Villers-la-Tour Chemin n°24 </desc>
<link href="https://chemins.be/villerslatour/chemin/24"/><trkseg>
<trkpt lat="50.033025" lon="4.231019"><time>2026-05-03T07:36:44Z</time></trkpt>
<trkpt lat="50.033538" lon="4.231548"><time>2026-05-03T07:46:44Z</time></trkpt>
<trkpt lat="50.033916" lon="4.231617"><time>2026-05-03T07:56:44Z</time></trkpt>
<trkpt lat="50.035032" lon="4.232493"><time>2026-05-03T08:06:44Z</time></trkpt>
<trkpt lat="50.035329" lon="4.232813"><time>2026-05-03T08:16:44Z</time></trkpt>
<trkpt lat="50.035429" lon="4.233567"><time>2026-05-03T08:26:44Z</time></trkpt>
<trkpt lat="50.035762" lon="4.233943"><time>2026-05-03T08:36:44Z</time></trkpt>
<trkpt lat="50.036329" lon="4.234890"><time>2026-05-03T08:46:44Z</time></trkpt>
<trkpt lat="50.037446" lon="4.236171"><time>2026-05-03T08:56:44Z</time></trkpt>
<trkpt lat="50.038192" lon="4.236490"><time>2026-05-03T09:06:44Z</time></trkpt>
</trkseg>
</trk>
<trk>
<name>hcmvt25</name>
<cmt>q</cmt>
<desc>Villers-la-Tour Chemin n°25 </desc>
<link href="https://chemins.be/villerslatour/chemin/25"/><trkseg>
<trkpt lat="50.039362" lon="4.263974"><time>2026-05-03T07:36:44Z</time></trkpt>
<trkpt lat="50.039055" lon="4.261936"><time>2026-05-03T07:46:44Z</time></trkpt>
</trkseg></trk>
<trk>
<name>hcmvt25</name>
<cmt>v</cmt>
<desc>Villers-la-Tour Chemin n°25 </desc>
<link href="https://chemins.be/villerslatour/chemin/25"/><trkseg>
<trkpt lat="50.039055" lon="4.261936"><time>2026-05-03T07:46:44Z</time></trkpt>
<trkpt lat="50.038523" lon="4.260123"><time>2026-05-03T07:56:44Z</time></trkpt>
<trkpt lat="50.037566" lon="4.255951"><time>2026-05-03T08:06:44Z</time></trkpt>
</trkseg>
</trk>
<trk>
<name>hcmvt26</name>
<cmt>v</cmt>
<desc>Villers-la-Tour Chemin n°26 Ruelle Noël</desc>
<link href="https://chemins.be/villerslatour/chemin/26"/><trkseg>
<trkpt lat="50.036879" lon="4.262541"><time>2026-05-03T07:36:44Z</time></trkpt>
<trkpt lat="50.037840" lon="4.260752"><time>2026-05-03T07:46:44Z</time></trkpt>
<trkpt lat="50.038550" lon="4.260109"><time>2026-05-03T07:56:44Z</time></trkpt>
</trkseg>
</trk>
<trk>
<name>hcmvt27</name>
<cmt>v</cmt>
<desc>Villers-la-Tour Chemin n°27 Rue du Moulin</desc>
<link href="https://chemins.be/villerslatour/chemin/27"/><trkseg>
<trkpt lat="50.035115" lon="4.260200"><time>2026-05-03T07:36:44Z</time></trkpt>
<trkpt lat="50.035025" lon="4.259488"><time>2026-05-03T07:46:44Z</time></trkpt>
<trkpt lat="50.035248" lon="4.258553"><time>2026-05-03T07:56:44Z</time></trkpt>
</trkseg>
</trk>
<trk>
<name>hcmvt31</name>
<cmt>v</cmt>
<desc>Villers-la-Tour Chemin n°31 </desc>
<link href="https://chemins.be/villerslatour/chemin/31"/><trkseg>
<trkpt lat="50.030969" lon="4.249295"><time>2026-05-03T07:36:44Z</time></trkpt>
<trkpt lat="50.031229" lon="4.249239"><time>2026-05-03T07:46:44Z</time></trkpt>
<trkpt lat="50.031563" lon="4.250047"><time>2026-05-03T07:56:44Z</time></trkpt>
</trkseg></trk>
<trk>
<name>hcmvt31</name>
<cmt>q</cmt>
<desc>Villers-la-Tour Chemin n°31 </desc>
<link href="https://chemins.be/villerslatour/chemin/31"/><trkseg>
<trkpt lat="50.031563" lon="4.250047"><time>2026-05-03T07:56:44Z</time></trkpt>
<trkpt lat="50.032068" lon="4.251846"><time>2026-05-03T08:06:44Z</time></trkpt>
<trkpt lat="50.032087" lon="4.252656"><time>2026-05-03T08:16:44Z</time></trkpt>
<trkpt lat="50.032024" lon="4.252865"><time>2026-05-03T08:26:44Z</time></trkpt>
</trkseg>
</trk>
<trk>
<name>hcmvt32</name>
<cmt>v</cmt>
<desc>Villers-la-Tour Chemin n°32 </desc>
<link href="https://chemins.be/villerslatour/chemin/32"/><trkseg>
<trkpt lat="50.031952" lon="4.253019"><time>2026-05-03T07:36:44Z</time></trkpt>
<trkpt lat="50.030354" lon="4.254405"><time>2026-05-03T07:46:44Z</time></trkpt>
</trkseg>
</trk>
<trk>
<name>hcmvt34</name>
<cmt>q</cmt>
<desc>Villers-la-Tour Chemin n°34 </desc>
<link href="https://chemins.be/villerslatour/chemin/34"/><trkseg>
<trkpt lat="50.027324" lon="4.261466"><time>2026-05-03T07:36:44Z</time></trkpt>
<trkpt lat="50.026739" lon="4.260818"><time>2026-05-03T07:46:44Z</time></trkpt>
</trkseg>
</trk>
<trk>
<name>hcmvt35</name>
<cmt>v</cmt>
<desc>Villers-la-Tour Chemin n°35 Rue Moursounnais</desc>
<link href="https://chemins.be/villerslatour/chemin/35"/><trkseg>
<trkpt lat="50.032166" lon="4.259509"><time>2026-05-03T07:36:44Z</time></trkpt>
<trkpt lat="50.030932" lon="4.257893"><time>2026-05-03T07:46:44Z</time></trkpt>
<trkpt lat="50.029645" lon="4.255732"><time>2026-05-03T07:56:44Z</time></trkpt>
<trkpt lat="50.028933" lon="4.254297"><time>2026-05-03T08:06:44Z</time></trkpt>
</trkseg>
</trk>
<trk>
<name>hcmvt36</name>
<cmt>v</cmt>
<desc>Villers-la-Tour Chemin n°36 Chemin n°36</desc>
<link href="https://chemins.be/villerslatour/chemin/36"/><trkseg>
<trkpt lat="50.030714" lon="4.264341"><time>2026-05-03T07:36:44Z</time></trkpt>
<trkpt lat="50.030058" lon="4.265445"><time>2026-05-03T07:46:44Z</time></trkpt>
</trkseg>
</trk>
<trk>
<name>hcmvt37</name>
<cmt>v</cmt>
<desc>Villers-la-Tour Chemin n°37 Rue du Village</desc>
<link href="https://chemins.be/villerslatour/chemin/37"/><trkseg>
<trkpt lat="50.036403" lon="4.262724"><time>2026-05-03T07:36:44Z</time></trkpt>
<trkpt lat="50.035784" lon="4.264009"><time>2026-05-03T07:46:44Z</time></trkpt>
<trkpt lat="50.035712" lon="4.264386"><time>2026-05-03T07:56:44Z</time></trkpt>
<trkpt lat="50.036055" lon="4.265698"><time>2026-05-03T08:06:44Z</time></trkpt>
<trkpt lat="50.036344" lon="4.267372"><time>2026-05-03T08:16:44Z</time></trkpt>
<trkpt lat="50.037733" lon="4.271892"><time>2026-05-03T08:26:44Z</time></trkpt>
</trkseg>
</trk>
<trk>
<name>hcmvt38</name>
<cmt>v</cmt>
<desc>Villers-la-Tour Chemin n°38 </desc>
<link href="https://chemins.be/villerslatour/chemin/38"/><trkseg>
<trkpt lat="50.037592" lon="4.255881"><time>2026-05-03T07:36:44Z</time></trkpt>
<trkpt lat="50.037565" lon="4.255016"><time>2026-05-03T07:46:44Z</time></trkpt>
<trkpt lat="50.037293" lon="4.253453"><time>2026-05-03T07:56:44Z</time></trkpt>
<trkpt lat="50.036699" lon="4.252059"><time>2026-05-03T08:06:44Z</time></trkpt>
<trkpt lat="50.035146" lon="4.246228"><time>2026-05-03T08:16:44Z</time></trkpt>
<trkpt lat="50.033482" lon="4.245087"><time>2026-05-03T08:26:44Z</time></trkpt>
<trkpt lat="50.032870" lon="4.244447"><time>2026-05-03T08:36:44Z</time></trkpt>
</trkseg>
</trk>
<trk>
<name>hcmvt39</name>
<cmt>q</cmt>
<desc>Villers-la-Tour Sentier n°39 </desc>
<link href="https://chemins.be/villerslatour/sentier/39"/><trkseg>
<trkpt lat="50.031172" lon="4.245582"><time>2026-05-03T07:36:44Z</time></trkpt>
<trkpt lat="50.030101" lon="4.245264"><time>2026-05-03T07:46:44Z</time></trkpt>
</trkseg></trk>
<trk>
<name>hcmvt39</name>
<cmt>v</cmt>
<desc>Villers-la-Tour Sentier n°39 </desc>
<link href="https://chemins.be/villerslatour/sentier/39"/><trkseg>
<trkpt lat="50.030101" lon="4.245264"><time>2026-05-03T07:46:44Z</time></trkpt>
<trkpt lat="50.029751" lon="4.245488"><time>2026-05-03T07:56:44Z</time></trkpt>
<trkpt lat="50.029499" lon="4.245684"><time>2026-05-03T08:06:44Z</time></trkpt>
<trkpt lat="50.029383" lon="4.246270"><time>2026-05-03T08:16:44Z</time></trkpt>
<trkpt lat="50.029042" lon="4.246467"><time>2026-05-03T08:26:44Z</time></trkpt>
</trkseg>
</trk>
<trk>
<name>hcmvt4</name>
<cmt>v</cmt>
<desc>Villers-la-Tour Chemin n°4 </desc>
<link href="https://chemins.be/villerslatour/chemin/4"/><trkseg>
<trkpt lat="50.030364" lon="4.247217"><time>2026-05-03T07:36:44Z</time></trkpt>
<trkpt lat="50.029769" lon="4.245474"><time>2026-05-03T07:46:44Z</time></trkpt>
<trkpt lat="50.028849" lon="4.242866"><time>2026-05-03T07:56:44Z</time></trkpt>
</trkseg>
</trk>
<trk>
<name>hcmvt40</name>
<cmt>q</cmt>
<desc>Villers-la-Tour Sentier n°40 </desc>
<link href="https://chemins.be/villerslatour/sentier/40"/><trkseg>
<trkpt lat="50.032189" lon="4.245186"><time>2026-05-03T07:36:44Z</time></trkpt>
<trkpt lat="50.031794" lon="4.242210"><time>2026-05-03T07:46:44Z</time></trkpt>
<trkpt lat="50.031413" lon="4.241824"><time>2026-05-03T07:56:44Z</time></trkpt>
<trkpt lat="50.031257" lon="4.240994"><time>2026-05-03T08:06:44Z</time></trkpt>
<trkpt lat="50.030825" lon="4.240236"><time>2026-05-03T08:16:44Z</time></trkpt>
</trkseg>
</trk>
<trk>
<name>hcmvt41</name>
<cmt>q</cmt>
<desc>Villers-la-Tour Sentier n°41 </desc>
<link href="https://chemins.be/villerslatour/sentier/41"/><trkseg>
<trkpt lat="50.031823" lon="4.238312"><time>2026-05-03T07:36:44Z</time></trkpt>
<trkpt lat="50.031978" lon="4.237940"><time>2026-05-03T07:46:44Z</time></trkpt>
<trkpt lat="50.032476" lon="4.237753"><time>2026-05-03T07:56:44Z</time></trkpt>
<trkpt lat="50.033714" lon="4.235887"><time>2026-05-03T08:06:44Z</time></trkpt>
<trkpt lat="50.033928" lon="4.231631"><time>2026-05-03T08:16:44Z</time></trkpt>
</trkseg>
</trk>
<trk>
<name>hcmvt42</name>
<cmt>q</cmt>
<desc>Villers-la-Tour Sentier n°42 </desc>
<link href="https://chemins.be/villerslatour/sentier/42"/><trkseg>
<trkpt lat="50.032552" lon="4.244696"><time>2026-05-03T07:36:44Z</time></trkpt>
<trkpt lat="50.033453" lon="4.243069"><time>2026-05-03T07:46:44Z</time></trkpt>
<trkpt lat="50.033756" lon="4.241581"><time>2026-05-03T07:56:44Z</time></trkpt>
<trkpt lat="50.034344" lon="4.240258"><time>2026-05-03T08:06:44Z</time></trkpt>
<trkpt lat="50.035432" lon="4.235390"><time>2026-05-03T08:16:44Z</time></trkpt>
<trkpt lat="50.035648" lon="4.233788"><time>2026-05-03T08:26:44Z</time></trkpt>
</trkseg>
</trk>
<trk>
<name>hcmvt43</name>
<cmt>v</cmt>
<desc>Villers-la-Tour Sentier n°43 </desc>
<link href="https://chemins.be/villerslatour/sentier/43"/><trkseg>
<trkpt lat="50.026123" lon="4.249516"><time>2026-05-03T07:36:44Z</time></trkpt>
<trkpt lat="50.026546" lon="4.249515"><time>2026-05-03T07:46:44Z</time></trkpt>
<trkpt lat="50.027436" lon="4.249457"><time>2026-05-03T07:56:44Z</time></trkpt>
<trkpt lat="50.029081" lon="4.249886"><time>2026-05-03T08:06:44Z</time></trkpt>
<trkpt lat="50.029217" lon="4.250597"><time>2026-05-03T08:16:44Z</time></trkpt>
<trkpt lat="50.029361" lon="4.250723"><time>2026-05-03T08:26:44Z</time></trkpt>
<trkpt lat="50.031005" lon="4.250021"><time>2026-05-03T08:36:44Z</time></trkpt>
</trkseg></trk>
<trk>
<name>hcmvt43</name>
<cmt>q</cmt>
<desc>Villers-la-Tour Sentier n°43 </desc>
<link href="https://chemins.be/villerslatour/sentier/43"/><trkseg>
<trkpt lat="50.031005" lon="4.250021"><time>2026-05-03T08:36:44Z</time></trkpt>
<trkpt lat="50.031428" lon="4.249922"><time>2026-05-03T08:46:44Z</time></trkpt>
<trkpt lat="50.031563" lon="4.250089"><time>2026-05-03T08:56:44Z</time></trkpt>
</trkseg></trk>
<trk>
<name>hcmvt43</name>
<cmt>v</cmt>
<desc>Villers-la-Tour Sentier n°43 </desc>
<link href="https://chemins.be/villerslatour/sentier/43"/><trkseg>
<trkpt lat="50.031563" lon="4.250089"><time>2026-05-03T08:56:44Z</time></trkpt>
<trkpt lat="50.032004" lon="4.250381"><time>2026-05-03T09:06:44Z</time></trkpt>
<trkpt lat="50.032552" lon="4.250422"><time>2026-05-03T09:16:44Z</time></trkpt>
</trkseg></trk>
<trk>
<name>hcmvt43</name>
<cmt>q</cmt>
<desc>Villers-la-Tour Sentier n°43 </desc>
<link href="https://chemins.be/villerslatour/sentier/43"/><trkseg>
<trkpt lat="50.032552" lon="4.250422"><time>2026-05-03T09:16:44Z</time></trkpt>
<trkpt lat="50.034432" lon="4.251031"><time>2026-05-03T09:26:44Z</time></trkpt>
<trkpt lat="50.036401" lon="4.250733"><time>2026-05-03T09:36:44Z</time></trkpt>
<trkpt lat="50.040653" lon="4.250220"><time>2026-05-03T09:46:44Z</time></trkpt>
</trkseg>
</trk>
<trk>
<name>hcmvt44</name>
<cmt>q</cmt>
<desc>Villers-la-Tour Sentier n°44 </desc>
<link href="https://chemins.be/villerslatour/sentier/44"/><trkseg>
<trkpt lat="50.031345" lon="4.251199"><time>2026-05-03T07:36:44Z</time></trkpt>
<trkpt lat="50.029880" lon="4.250911"><time>2026-05-03T07:46:44Z</time></trkpt>
<trkpt lat="50.029499" lon="4.250707"><time>2026-05-03T07:56:44Z</time></trkpt>
</trkseg>
</trk>
<trk>
<name>hcmvt46</name>
<cmt>v</cmt>
<desc>Villers-la-Tour Sentier n°46 </desc>
<link href="https://chemins.be/villerslatour/sentier/46"/><trkseg>
<trkpt lat="50.038549" lon="4.260025"><time>2026-05-03T07:36:44Z</time></trkpt>
<trkpt lat="50.040759" lon="4.257354"><time>2026-05-03T07:46:44Z</time></trkpt>
<trkpt lat="50.042233" lon="4.256834"><time>2026-05-03T07:56:44Z</time></trkpt>
<trkpt lat="50.043867" lon="4.255252"><time>2026-05-03T08:06:44Z</time></trkpt>
</trkseg>
</trk>
<trk>
<name>hcmvt47</name>
<cmt>q</cmt>
<desc>Villers-la-Tour Sentier n°47 </desc>
<link href="https://chemins.be/villerslatour/sentier/47"/><trkseg>
<trkpt lat="50.037398" lon="4.263177"><time>2026-05-03T07:36:44Z</time></trkpt>
<trkpt lat="50.038148" lon="4.263171"><time>2026-05-03T07:46:44Z</time></trkpt>
</trkseg>
</trk>
<trk>
<name>hcmvt48</name>
<cmt>q</cmt>
<desc>Villers-la-Tour Sentier n°48 </desc>
<link href="https://chemins.be/villerslatour/sentier/48"/><trkseg>
<trkpt lat="50.038651" lon="4.263905"><time>2026-05-03T07:36:44Z</time></trkpt>
<trkpt lat="50.039023" lon="4.264533"><time>2026-05-03T07:46:44Z</time></trkpt>
<trkpt lat="50.038988" lon="4.264913"><time>2026-05-03T07:56:44Z</time></trkpt>
<trkpt lat="50.039695" lon="4.266367"><time>2026-05-03T08:06:44Z</time></trkpt>
<trkpt lat="50.040208" lon="4.268502"><time>2026-05-03T08:16:44Z</time></trkpt>
</trkseg>
</trk>
<trk>
<name>hcmvt49</name>
<cmt>q</cmt>
<desc>Villers-la-Tour Sentier n°49 </desc>
<link href="https://chemins.be/villerslatour/sentier/49"/><trkseg>
<trkpt lat="50.038229" lon="4.263831"><time>2026-05-03T07:36:44Z</time></trkpt>
<trkpt lat="50.037976" lon="4.264447"><time>2026-05-03T07:46:44Z</time></trkpt>
</trkseg>
</trk>
<trk>
<name>hcmvt50</name>
<cmt>q</cmt>
<desc>Villers-la-Tour Sentier n°50 </desc>
<link href="https://chemins.be/villerslatour/sentier/50"/><trkseg>
<trkpt lat="50.035644" lon="4.262674"><time>2026-05-03T07:36:44Z</time></trkpt>
<trkpt lat="50.035760" lon="4.264511"><time>2026-05-03T07:46:44Z</time></trkpt>
</trkseg></trk>
<trk>
<name>hcmvt50</name>
<cmt>v</cmt>
<desc>Villers-la-Tour Sentier n°50 </desc>
<link href="https://chemins.be/villerslatour/sentier/50"/><trkseg>
<trkpt lat="50.035760" lon="4.264511"><time>2026-05-03T07:46:44Z</time></trkpt>
<trkpt lat="50.035500" lon="4.268002"><time>2026-05-03T07:56:44Z</time></trkpt>
<trkpt lat="50.035115" lon="4.270460"><time>2026-05-03T08:06:44Z</time></trkpt>
<trkpt lat="50.034828" lon="4.271493"><time>2026-05-03T08:16:44Z</time></trkpt>
<trkpt lat="50.034137" lon="4.272890"><time>2026-05-03T08:26:44Z</time></trkpt>
</trkseg>
</trk>
<trk>
<name>hcmvt50bis</name>
<cmt>q</cmt>
<desc>Villers-la-Tour Sentier n°50bis </desc>
<link href="https://chemins.be/villerslatour/sentier/50bis"/><trkseg>
<trkpt lat="50.034924" lon="4.263006"><time>2026-05-03T07:36:44Z</time></trkpt>
<trkpt lat="50.035675" lon="4.263690"><time>2026-05-03T07:46:44Z</time></trkpt>
<trkpt lat="50.035936" lon="4.264225"><time>2026-05-03T07:56:44Z</time></trkpt>
<trkpt lat="50.036840" lon="4.262745"><time>2026-05-03T08:06:44Z</time></trkpt>
</trkseg>
</trk>
<trk>
<name>hcmvt51</name>
<cmt>q</cmt>
<desc>Villers-la-Tour Sentier n°51 </desc>
<link href="https://chemins.be/villerslatour/sentier/51"/><trkseg>
<trkpt lat="50.034630" lon="4.262957"><time>2026-05-03T07:36:44Z</time></trkpt>
<trkpt lat="50.033808" lon="4.263077"><time>2026-05-03T07:46:44Z</time></trkpt>
</trkseg></trk>
<trk>
<name>hcmvt51</name>
<cmt>v</cmt>
<desc>Villers-la-Tour Sentier n°51 </desc>
<link href="https://chemins.be/villerslatour/sentier/51"/><trkseg>
<trkpt lat="50.033808" lon="4.263077"><time>2026-05-03T07:46:44Z</time></trkpt>
<trkpt lat="50.032735" lon="4.263206"><time>2026-05-03T07:56:44Z</time></trkpt>
<trkpt lat="50.031390" lon="4.262995"><time>2026-05-03T08:06:44Z</time></trkpt>
</trkseg></trk>
<trk>
<name>hcmvt51</name>
<cmt>q</cmt>
<desc>Villers-la-Tour Sentier n°51 </desc>
<link href="https://chemins.be/villerslatour/sentier/51"/><trkseg>
<trkpt lat="50.031390" lon="4.262995"><time>2026-05-03T08:06:44Z</time></trkpt>
<trkpt lat="50.029651" lon="4.262871"><time>2026-05-03T08:16:44Z</time></trkpt>
</trkseg>
</trk>
<trk>
<name>hcmvt52</name>
<cmt>q</cmt>
<desc>Villers-la-Tour Sentier n°52 </desc>
<link href="https://chemins.be/villerslatour/sentier/52"/><trkseg>
<trkpt lat="50.032165" lon="4.265815"><time>2026-05-03T07:36:44Z</time></trkpt>
<trkpt lat="50.031983" lon="4.268004"><time>2026-05-03T07:46:44Z</time></trkpt>
<trkpt lat="50.031614" lon="4.268802"><time>2026-05-03T07:56:44Z</time></trkpt>
<trkpt lat="50.031906" lon="4.269000"><time>2026-05-03T08:06:44Z</time></trkpt>
<trkpt lat="50.030765" lon="4.271738"><time>2026-05-03T08:16:44Z</time></trkpt>
<trkpt lat="50.030660" lon="4.273205"><time>2026-05-03T08:26:44Z</time></trkpt>
</trkseg>
</trk>
<trk>
<name>hcmvt53</name>
<cmt>q</cmt>
<desc>Villers-la-Tour Sentier n°53 </desc>
<link href="https://chemins.be/villerslatour/sentier/53"/><trkseg>
<trkpt lat="50.025467" lon="4.264832"><time>2026-05-03T07:36:44Z</time></trkpt>
<trkpt lat="50.026382" lon="4.267493"><time>2026-05-03T07:46:44Z</time></trkpt>
<trkpt lat="50.026360" lon="4.268764"><time>2026-05-03T07:56:44Z</time></trkpt>
<trkpt lat="50.026691" lon="4.269896"><time>2026-05-03T08:06:44Z</time></trkpt>
</trkseg></trk>
<trk>
<name>hcmvt53</name>
<cmt>r</cmt>
<desc>Villers-la-Tour Sentier n°53 </desc>
<link href="https://chemins.be/villerslatour/sentier/53"/><trkseg>
<trkpt lat="50.026691" lon="4.269896"><time>2026-05-03T08:06:44Z</time></trkpt>
<trkpt lat="50.027408" lon="4.269999"><time>2026-05-03T08:16:44Z</time></trkpt>
</trkseg></trk>
<trk>
<name>hcmvt53</name>
<cmt>q</cmt>
<desc>Villers-la-Tour Sentier n°53 </desc>
<link href="https://chemins.be/villerslatour/sentier/53"/><trkseg>
<trkpt lat="50.027408" lon="4.269999"><time>2026-05-03T08:16:44Z</time></trkpt>
<trkpt lat="50.027783" lon="4.271115"><time>2026-05-03T08:26:44Z</time></trkpt>
<trkpt lat="50.027953" lon="4.271437"><time>2026-05-03T08:36:44Z</time></trkpt>
<trkpt lat="50.027892" lon="4.271778"><time>2026-05-03T08:46:44Z</time></trkpt>
<trkpt lat="50.028250" lon="4.272079"><time>2026-05-03T08:56:44Z</time></trkpt>
<trkpt lat="50.029275" lon="4.274405"><time>2026-05-03T09:06:44Z</time></trkpt>
</trkseg>
</trk>
<trk>
<name>hcmvt54</name>
<cmt>q</cmt>
<desc>Villers-la-Tour Sentier n°54 </desc>
<link href="https://chemins.be/villerslatour/sentier/54"/><trkseg>
<trkpt lat="50.022599" lon="4.265811"><time>2026-05-03T07:36:44Z</time></trkpt>
<trkpt lat="50.020537" lon="4.265897"><time>2026-05-03T07:46:44Z</time></trkpt>
<trkpt lat="50.018662" lon="4.263871"><time>2026-05-03T07:56:44Z</time></trkpt>
<trkpt lat="50.015948" lon="4.263476"><time>2026-05-03T08:06:44Z</time></trkpt>
</trkseg>
</trk>
<trk>
<name>hcmvt55</name>
<cmt>q</cmt>
<desc>Villers-la-Tour Sentier n°55 </desc>
<link href="https://chemins.be/villerslatour/sentier/55"/><trkseg>
<trkpt lat="50.020221" lon="4.267470"><time>2026-05-03T07:36:44Z</time></trkpt>
<trkpt lat="50.020103" lon="4.266899"><time>2026-05-03T07:46:44Z</time></trkpt>
<trkpt lat="50.019954" lon="4.266641"><time>2026-05-03T07:56:44Z</time></trkpt>
<trkpt lat="50.019653" lon="4.264933"><time>2026-05-03T08:06:44Z</time></trkpt>
</trkseg>
</trk>
<trk>
<name>hcmvt56</name>
<cmt>q</cmt>
<desc>Villers-la-Tour Sentier n°56 </desc>
<link href="https://chemins.be/villerslatour/sentier/56"/><trkseg>
<trkpt lat="50.019146" lon="4.268184"><time>2026-05-03T07:36:44Z</time></trkpt>
<trkpt lat="50.018711" lon="4.268150"><time>2026-05-03T07:46:44Z</time></trkpt>
<trkpt lat="50.017707" lon="4.263704"><time>2026-05-03T07:56:44Z</time></trkpt>
</trkseg>
</trk>
<trk>
<name>hcmvt57</name>
<cmt>q</cmt>
<desc>Villers-la-Tour Sentier n°57 </desc>
<link href="https://chemins.be/villerslatour/sentier/57"/><trkseg>
<trkpt lat="50.027900" lon="4.271813"><time>2026-05-03T07:36:44Z</time></trkpt>
<trkpt lat="50.027539" lon="4.273092"><time>2026-05-03T07:46:44Z</time></trkpt>
</trkseg>
</trk>
<trk>
<name>hcmvt58</name>
<cmt>q</cmt>
<desc>Villers-la-Tour Sentier n°58 </desc>
<link href="https://chemins.be/villerslatour/sentier/58"/><trkseg>
<trkpt lat="50.029866" lon="4.262236"><time>2026-05-03T07:36:44Z</time></trkpt>
<trkpt lat="50.028471" lon="4.261652"><time>2026-05-03T07:46:44Z</time></trkpt>
</trkseg>
</trk>
<trk>
<name>hcmvt59</name>
<cmt>v</cmt>
<desc>Villers-la-Tour Sentier n°59 </desc>
<link href="https://chemins.be/villerslatour/sentier/59"/><trkseg>
<trkpt lat="50.034632" lon="4.262909"><time>2026-05-03T07:36:44Z</time></trkpt>
<trkpt lat="50.034280" lon="4.261668"><time>2026-05-03T07:46:44Z</time></trkpt>
<trkpt lat="50.033956" lon="4.261026"><time>2026-05-03T07:56:44Z</time></trkpt>
<trkpt lat="50.033772" lon="4.260642"><time>2026-05-03T08:06:44Z</time></trkpt>
<trkpt lat="50.033088" lon="4.260204"><time>2026-05-03T08:16:44Z</time></trkpt>
</trkseg></trk>
<trk>
<name>hcmvt59</name>
<cmt>q</cmt>
<desc>Villers-la-Tour Sentier n°59 </desc>
<link href="https://chemins.be/villerslatour/sentier/59"/><trkseg>
<trkpt lat="50.033088" lon="4.260204"><time>2026-05-03T08:16:44Z</time></trkpt>
<trkpt lat="50.033179" lon="4.259861"><time>2026-05-03T08:26:44Z</time></trkpt>
<trkpt lat="50.032811" lon="4.258309"><time>2026-05-03T08:36:44Z</time></trkpt>
<trkpt lat="50.032899" lon="4.257794"><time>2026-05-03T08:46:44Z</time></trkpt>
<trkpt lat="50.032988" lon="4.256146"><time>2026-05-03T08:56:44Z</time></trkpt>
</trkseg>
</trk>
<trk>
<name>hcmvt6</name>
<cmt>v</cmt>
<desc>Villers-la-Tour Chemin n°6 </desc>
<link href="https://chemins.be/villerslatour/chemin/6"/><trkseg>
<trkpt lat="50.028701" lon="4.242865"><time>2026-05-03T07:36:44Z</time></trkpt>
<trkpt lat="50.017892" lon="4.235526"><time>2026-05-03T07:46:44Z</time></trkpt>
</trkseg>
</trk>
<trk>
<name>hcmvt60</name>
<cmt>q</cmt>
<desc>Villers-la-Tour Sentier n°60 </desc>
<link href="https://chemins.be/villerslatour/sentier/60"/><trkseg>
<trkpt lat="50.027002" lon="4.259211"><time>2026-05-03T07:36:44Z</time></trkpt>
<trkpt lat="50.022524" lon="4.258318"><time>2026-05-03T07:46:44Z</time></trkpt>
<trkpt lat="50.021951" lon="4.258627"><time>2026-05-03T07:56:44Z</time></trkpt>
<trkpt lat="50.020702" lon="4.258979"><time>2026-05-03T08:06:44Z</time></trkpt>
</trkseg>
</trk>
<trk>
<name>hcmvt61</name>
<cmt>q</cmt>
<desc>Villers-la-Tour Sentier n°61 </desc>
<link href="https://chemins.be/villerslatour/sentier/61"/><trkseg>
<trkpt lat="50.028458" lon="4.242922"><time>2026-05-03T07:36:44Z</time></trkpt>
<trkpt lat="50.023501" lon="4.248374"><time>2026-05-03T07:46:44Z</time></trkpt>
</trkseg>
</trk>
<trk>
<name>hcmvt8</name>
<cmt>v</cmt>
<desc>Villers-la-Tour Chemin n°8 </desc>
<link href="https://chemins.be/villerslatour/chemin/8"/><trkseg>
<trkpt lat="50.037896" lon="4.263642"><time>2026-05-03T07:36:44Z</time></trkpt>
<trkpt lat="50.038148" lon="4.263181"><time>2026-05-03T07:46:44Z</time></trkpt>
<trkpt lat="50.038489" lon="4.262901"><time>2026-05-03T07:56:44Z</time></trkpt>
</trkseg>
</trk>
<trk>
<name>hcmvti1</name>
<cmt>q</cmt>
<desc>Villers-la-Tour Sentier n°i1 </desc>
<link href="https://chemins.be/villerslatour/sentier/i1"/><trkseg>
<trkpt lat="50.030300" lon="4.254433"><time>2026-05-03T07:36:44Z</time></trkpt>
<trkpt lat="50.029770" lon="4.254839"><time>2026-05-03T07:46:44Z</time></trkpt>
<trkpt lat="50.029446" lon="4.255119"><time>2026-05-03T07:56:44Z</time></trkpt>
</trkseg>
</trk>
<trk>
<name>hcmvti2</name>
<cmt>v</cmt>
<desc>Villers-la-Tour Chemin n°i2 </desc>
<link href="https://chemins.be/villerslatour/chemin/i2"/><trkseg>
<trkpt lat="50.027241" lon="4.260176"><time>2026-05-03T07:36:44Z</time></trkpt>
<trkpt lat="50.029278" lon="4.256084"><time>2026-05-03T07:46:44Z</time></trkpt>
</trkseg>
</trk>
<trk>
<name>hcmvti3</name>
<cmt>v</cmt>
<desc>Villers-la-Tour Chemin n°i3 </desc>
<link href="https://chemins.be/villerslatour/chemin/i3"/><trkseg>
<trkpt lat="50.027572" lon="4.259490"><time>2026-05-03T07:36:44Z</time></trkpt>
<trkpt lat="50.028157" lon="4.260013"><time>2026-05-03T07:46:44Z</time></trkpt>
<trkpt lat="50.028741" lon="4.260039"><time>2026-05-03T07:56:44Z</time></trkpt>
<trkpt lat="50.029960" lon="4.259532"><time>2026-05-03T08:06:44Z</time></trkpt>
<trkpt lat="50.030676" lon="4.258966"><time>2026-05-03T08:16:44Z</time></trkpt>
<trkpt lat="50.031079" lon="4.259404"><time>2026-05-03T08:26:44Z</time></trkpt>
</trkseg>
</trk>
<trk>
<name>hcmvtL156</name>
<cmt>v</cmt>
<desc>Villers-la-Tour Chemin n°L156 Ravel 156</desc>
<link href="https://chemins.be/villerslatour/chemin/L156"/><trkseg>
<trkpt lat="50.017116" lon="4.233389"><time>2026-05-03T07:36:44Z</time></trkpt>
<trkpt lat="50.018099" lon="4.237411"><time>2026-05-03T07:46:44Z</time></trkpt>
<trkpt lat="50.019511" lon="4.240006"><time>2026-05-03T07:56:44Z</time></trkpt>
<trkpt lat="50.025871" lon="4.249671"><time>2026-05-03T08:06:44Z</time></trkpt>
<trkpt lat="50.027546" lon="4.251983"><time>2026-05-03T08:16:44Z</time></trkpt>
<trkpt lat="50.029287" lon="4.256065"><time>2026-05-03T08:26:44Z</time></trkpt>
<trkpt lat="50.030638" lon="4.258734"><time>2026-05-03T08:36:44Z</time></trkpt>
<trkpt lat="50.031395" lon="4.259554"><time>2026-05-03T08:46:44Z</time></trkpt>
<trkpt lat="50.032472" lon="4.260723"><time>2026-05-03T08:56:44Z</time></trkpt>
<trkpt lat="50.034048" lon="4.263580"><time>2026-05-03T09:06:44Z</time></trkpt>
<trkpt lat="50.035382" lon="4.267416"><time>2026-05-03T09:16:44Z</time></trkpt>
<trkpt lat="50.036466" lon="4.273458"><time>2026-05-03T09:26:44Z</time></trkpt>
</trkseg>
</trk>
</gpx>